Regional Weather Roundup
Issued by NWS Raleigh/Durham, NC

Home | Current Version | Previous Version | Text Only | Print | Product List | Glossary On
Versions: 1 2 3 4 5 6 7 8 9 10 11 12 13 14 15 16 17 18 19 20 21 22 23 24 25 26 27 28 29 30 31 32 33 34 35 36 37 38 39 40 41 42 43 44 45 46 47 48 49 50
000
ASUS42 KRAH 011210
RWRRAH
NORTH CAROLINA WEATHER ROUNDUP
NATIONAL WEATHER SERVICE RALEIGH NC
700 AM EST SUN MAR 01 2015

NOTE: "FAIR" INDICATES FEW OR NO CLOUDS BELOW 12,000 FEET WITH NO
SIGNIFICANT WEATHER AND/OR OBSTRUCTIONS TO VISIBILITY.

NCZ001-053-055-056-065-067-011300-
WESTERN NORTH CAROLINA

CITY           SKY/WX    TMP DP  RH WIND       PRES   REMARKS
ASHEVILLE      MIX PCPN  31  28  89 S5        30.50S FOG     WCI  26
JEFFERSON      CLOUDY    31  25  76 E3        30.43S
MORGANTON      CLOUDY    31  28  88 CALM      30.59F
HICKORY        FRZ RAIN  30  26  85 N3        30.54S FOG
RUTHERFORDTON  DRIZZLE   32  31  99 N3        30.54F
MOUNT AIRY     MIX PCPN  31  20  63 CALM      30.58S
BOONE          CLOUDY    36  35  96 NE7       30.43S WCI  31
$$

NCZ021-022-025-041-071-084-088-011300-
CENTRAL NORTH CAROLINA

CITY           SKY/WX    TMP DP  RH WIND       PRES   REMARKS
CHARLOTTE      FRZ RAIN  30  27  86 N7        30.57F WCI  23
GREENSBORO     FRZ RAIN  29  22  75 NE3       30.57S
WINSTON-SALEM  FRZ RAIN  29  22  75 N3        30.59R
RALEIGH-DURHAM FRZ RAIN  29  24  82 NE5       30.60F FOG     WCI  24
FORT BRAGG     CLOUDY    32  28  86 NE6       30.55F WCI  26
FAYETTEVILLE   CLOUDY    32  28  85 NE12      30.55F WCI  23
BURLINGTON     CLOUDY    29  23  78 NW3       30.58S
LAURINBURG     CLOUDY    32  29  88 NE10      30.56F WCI  24
$$

NCZ011-015-027-028-043-044-047-080-103-011300-
NORTHEASTERN NORTH CAROLINA

CITY           SKY/WX    TMP DP  RH WIND       PRES   REMARKS
ROCKY MT-WILSO CLOUDY    30  24  78 N5        30.60F WCI  25
GREENVILLE     MOCLDY    32  27  80 N6        30.59F WCI  26
WASHINGTON     DRIZZLE   31  27  83 N5        30.60S WCI  26
ELIZABETH CITY CLOUDY    35  29  78 N9        30.61S WCI  28
MANTEO         CLOUDY    39  36  87 N12       30.57S WCI  32
CAPE HATTERAS  CLOUDY    40  38  93 N6        30.55S
$$

NCZ078-087-090-091-093-098-101-011300-
SOUTHEASTERN NORTH CAROLINA

CITY           SKY/WX    TMP DP  RH WIND       PRES   REMARKS
LUMBERTON      CLOUDY    34  28  79 NE9       30.54F WCI  27
GOLDSBORO      MIX PCPN  31  30  97 NE1       30.56F
KINSTON        CLOUDY    32  27  80 N5        30.59F WCI  27
KENANSVILLE    CLOUDY    32  28  83 CALM      30.57F
NEW BERN       LGT RAIN  33  28  81 NE7       30.58F WCI  27
CHERRY POINT   CLOUDY    36  30  79 N7        30.59S WCI  30
BEAUFORT       LGT RAIN  36  34  92 N8        30.57R WCI  30
JACKSONVILLE   CLOUDY    35  30  82 NE6       30.56F WCI  30
WILMINGTON     CLOUDY    36  31  82 NE9       30.54F WCI  29
$$



USA.gov is the U.S. government's official web portal to all federal, state and local government web resources and services.